[[{"header":{"parameterUnit":"m.s-1","parameterCategory":1,"la1":30.2991,"la2":30.254,"lo1":-89.0895,"lo2":-89.0444,"dy":0.0017,"dx":0.0017,"nx":28,"ny":28,"refTime":"2024-03-22T03:00:00:Z","depth":0,"parameterNumber":2,"parameterNumberName":"U-component_of_WINDS"},"data":[0,0,0,0,0,0,0,0,0,0,0,0,0,0,0,0,0,0,0,0,0,0,0,0,0,0,0,0,0,0,0,0,0,0,0,0,0,0,0,0,0,0,0,0,0,0,0,0,0,0,0,0,0,0,0,0,0,0,1.194,1.1941,0,1.1998,1.1998,1.1999,1.2035,1.2035,1.2035,1.2035,1.2094,1.2095,1.2096,0,0,0,0,0,0,0,0,0,0,0,0,0,1.1861,1.1862,1.194,1.1941,1.1942,1.1998,1.1998,1.1999,1.2035,1.2035,1.2035,1.2035,1.2093,1.2095,1.2096,0,0,0,0,0,0,0,0,0,0,0,0,0,1.1904,1.1862,1.194,1.1966,1.1969,1.1997,1.1998,1.1999,1.2035,1.2035,1.2035,1.2035,1.2093,1.2095,1.2097,1.2103,0,0,1.2103,1.2104,0,0,0,0,0,0,0,0,1.1902,1.1907,1.1962,1.1964,1.1968,1.2009,1.1992,1.2034,1.2035,1.201,1.2035,1.2036,1.2065,1.207,1.208,1.2106,1.2109,1.2103,1.2104,1.2105,1.2106,0,0,0,0,0,0,0,1.1899,1.1905,1.1963,1.1962,1.1966,1.1975,1.1981,1.2,1.2035,1.2012,1.2015,1.2021,1.2067,1.2078,1.2081,1.211,1.2103,1.2105,1.2106,1.2107,1.2145,1.2145,0,0,0,0,0,0,1.1892,1.1902,1.1961,1.1965,1.1935,1.1976,1.1983,1.1996,1.2035,1.2041,1.2021,1.2022,1.2074,1.2079,1.2084,1.2094,1.2105,1.2107,1.2108,1.2145,1.2145,1.2145,0,0,0,0,0,0,1.189,1.1897,1.1959,1.1934,1.1943,1.1977,1.1991,1.1997,1.2007,1.2042,1.2048,1.2025,1.2074,1.2081,1.2098,1.2097,1.2108,1.211,1.2145,1.2145,1.2145,1.2115,0,0,0,0,0,0,1.1887,1.1896,1.1899,1.1934,1.1944,1.1973,1.1991,1.1998,1.2011,1.2014,1.2048,1.2053,1.2075,1.2095,1.21,1.21,1.2112,1.2146,1.2145,1.2145,1.2117,1.2114,1.2112,0,0,0,0,0,1.1884,1.1888,1.1899,1.1906,1.1948,1.1972,1.1978,1.2003,1.2011,1.2014,1.2036,1.2052,1.2096,1.2097,1.2103,1.2103,1.2146,1.2145,1.2145,1.2118,1.2115,1.2112,0,0,0,0,0,0,1.1851,1.1893,1.1905,1.192,1.1943,1.1978,1.1983,1.1999,1.2019,1.2021,1.2051,1.2059,1.2073,1.209,1.209,1.2112,1.2123,1.2124,1.21,1.2097,1.2095,1.209,1.2113,0,0,0,0,0,1.1846,1.1862,1.1897,1.1907,1.1918,1.1948,1.196,1.1977,1.2001,1.2011,1.2034,1.2057,1.2076,1.2088,1.2107,1.212,1.2127,1.2123,1.212,1.2118,1.2118,1.2126,1.2124,1.2143,1.2143,1.2143,0,0,1.1834,1.1859,1.1867,1.1901,1.192,1.1936,1.1956,1.1972,1.1984,1.2013,1.2031,1.2049,1.2077,1.2092,1.21,1.2106,1.2115,1.2117,1.2115,1.2117,1.2125,1.2123,1.2122,1.2143,1.2143,1.2143,0,0,1.1821,1.1842,1.1852,1.1871,1.19,1.1921,1.1923,1.1957,1.197,1.1989,1.2011,1.2026,1.2058,1.2077,1.209,1.2085,1.2101,1.2091,1.2078,1.2085,1.2084,1.2082,1.208,1.2079,1.2091,1.2091,1.2091,0,1.1803,1.1828,1.1855,1.187,1.1884,1.1912,1.1923,1.194,1.1974,1.1983,1.199,1.2031,1.2051,1.2071,1.207,1.208,1.2084,1.2086,1.2082,1.2081,1.208,1.2078,1.2077,1.2089,1.2089,1.209,1.209,0,1.1804,1.1821,1.1826,1.1858,1.1873,1.1886,1.1915,1.1927,1.1943,1.1963,1.1982,1.2008,1.2033,1.2039,1.2055,1.2061,1.2064,1.2076,1.2088,1.2076,1.2075,1.2075,1.2087,1.2088,1.2088,1.2088,0,0,1.1771,1.1819,1.182,1.1835,1.1869,1.1883,1.1897,1.1922,1.1931,1.1954,1.1966,1.1993,1.2004,1.202,1.2038,1.2045,1.2039,1.2056,1.2057,1.2052,1.2047,1.2037,1.2036,1.205,1.205,1.205,1.2044,0,1.1762,1.1789,1.1814,1.1832,1.1848,1.1875,1.1887,1.1909,1.1928,1.1945,1.1966,1.1984,1.1998,1.2008,1.2015,1.2038,1.2038,1.2039,1.2061,1.2062,1.2053,1.2035,1.2025,1.2018,1.2044,1.2044,1.2044,0,1.1756,1.1778,1.1796,1.183,1.1837,1.1848,1.1873,1.1888,1.1914,1.1928,1.1945,1.1965,1.1981,1.1992,1.2015,1.2014,1.2025,1.2038,1.2038,1.204,1.2051,1.2036,1.2017,1.2015,1.2044,1.2044,1.2044,0,1.1729,1.1763,1.1779,1.1791,1.183,1.1837,1.1853,1.188,1.1893,1.1915,1.1924,1.1948,1.196,1.1978,1.2004,1.2009,1.2023,1.2036,1.2035,1.2034,1.2036,1.2035,1.2017,1.2044,1.2044,1.2044,1.2044,0,1.1716,1.1726,1.1767,1.1776,1.1789,1.1818,1.183,1.1849,1.1873,1.1886,1.1912,1.1924,1.1957,1.1974,1.1994,1.201,1.2015,1.2026,1.2031,1.2024,1.2022,1.203,1.2031,1.2044,1.2044,1.2044,1.2044,0,1.1687,1.1715,1.1734,1.177,1.1779,1.1787,1.1818,1.1828,1.1849,1.1866,1.1872,1.1904,1.1925,1.1953,1.1982,1.1996,1.2008,1.2017,1.1999,1.2002,1.1999,1.1998,1.1985,1.1984,1.2012,1.2012,1.2012,0,1.1677,1.1686,1.1723,1.1734,1.175,1.1768,1.1782,1.1811,1.1825,1.1856,1.1862,1.1885,1.1904,1.1936,1.1963,1.1985,1.1994,1.1988,1.1997,1.1989,1.1993,1.1992,1.1993,1.1985,1.1984,1.1984,1.1984,0,1.1656,1.1669,1.1688,1.1712,1.1728,1.1748,1.177,1.1778,1.1812,1.1826,1.1847,1.1863,1.1893,1.1915,1.1941,1.1959,1.1977,1.1981,1.1981,1.1973,1.1962,1.1967,1.1992,1.198,1.1981,1.1981,1.1981,1.1981,1.1635,1.1644,1.1672,1.1692,1.1712,1.1732,1.1743,1.1766,1.1784,1.1811,1.1828,1.1849,1.1875,1.1912,1.1929,1.1946,1.1953,1.1954,1.1954,1.1954,1.1951,1.196,1.1951,1.1951,1.1951,1.1951,1.1951,0,1.1614,1.1634,1.1653,1.1682,1.1698,1.1715,1.1739,1.1752,1.177,1.1793,1.1812,1.1837,1.1859,1.1888,1.1911,1.1919,1.1928,1.1925,1.1924,1.1927,1.1943,1.194,1.1917,1.1917,1.1917,1.1917,1.1917,1.1917,1.1605,1.1621,1.1638,1.1664,1.1683,1.1704,1.1717,1.1735,1.1754,1.1781,1.1799,1.1818,1.1843,1.1869,1.189,1.1898,1.1905,1.1899,1.1909,1.1923,1.1926,1.1929,1.1926,1.19,1.19,1.1892,1.1891,1.1891]},{"header":{"parameterUnit":"m.s-1","parameterCategory":1,"la1":30.2991,"la2":30.254,"lo1":-89.0895,"lo2":-89.0444,"dy":0.0017,"dx":0.0017,"nx":28,"ny":28,"refTime":"2024-03-22T03:00:00:Z","depth":0,"parameterNumber":3,"parameterNumberName":"V-component_of_WINDS"},"data":[0,0,0,0,0,0,0,0,0,0,0,0,0,0,0,0,0,0,0,0,0,0,0,0,0,0,0,0,0,0,0,0,0,0,0,0,0,0,0,0,0,0,0,0,0,0,0,0,0,0,0,0,0,0,0,0,0,0,-0.5716,-0.5716,0,-0.5746,-0.5746,-0.5746,-0.5768,-0.5768,-0.5768,-0.5768,-0.5799,-0.58,-0.5801,0,0,0,0,0,0,0,0,0,0,0,0,0,-0.5677,-0.5678,-0.5716,-0.5716,-0.5717,-0.5746,-0.5746,-0.5746,-0.5768,-0.5768,-0.5768,-0.5768,-0.5799,-0.58,-0.5801,0,0,0,0,0,0,0,0,0,0,0,0,0,-0.5699,-0.5678,-0.5716,-0.5731,-0.5732,-0.5745,-0.5746,-0.5746,-0.5768,-0.5768,-0.5768,-0.5768,-0.5799,-0.58,-0.5801,-0.5802,0,0,-0.5804,-0.5804,0,0,0,0,0,0,0,0,-0.5698,-0.5701,-0.5728,-0.573,-0.5731,-0.5753,-0.5744,-0.5765,-0.5767,-0.5754,-0.5768,-0.5768,-0.5784,-0.5786,-0.5791,-0.5803,-0.5805,-0.5804,-0.5805,-0.5805,-0.5805,0,0,0,0,0,0,0,-0.5696,-0.5699,-0.5728,-0.5728,-0.573,-0.5736,-0.5739,-0.5748,-0.5767,-0.5755,-0.5757,-0.576,-0.5785,-0.579,-0.5792,-0.5805,-0.5804,-0.5805,-0.5806,-0.5806,-0.5819,-0.5819,0,0,0,0,0,0,-0.5693,-0.5698,-0.5727,-0.5729,-0.5715,-0.5736,-0.574,-0.5746,-0.5767,-0.5771,-0.576,-0.5761,-0.5788,-0.5791,-0.5793,-0.5795,-0.5805,-0.5806,-0.5807,-0.5819,-0.5819,-0.5819,0,0,0,0,0,0,-0.5692,-0.5695,-0.5725,-0.5714,-0.5718,-0.5737,-0.5743,-0.5746,-0.5752,-0.5771,-0.5774,-0.5762,-0.5789,-0.5792,-0.5799,-0.5797,-0.5806,-0.5807,-0.5819,-0.5819,-0.5819,-0.58,0,0,0,0,0,0,-0.569,-0.5694,-0.5695,-0.5714,-0.5719,-0.5731,-0.5743,-0.5747,-0.5753,-0.5755,-0.5773,-0.5777,-0.5789,-0.5798,-0.58,-0.5798,-0.5808,-0.582,-0.5819,-0.5819,-0.5801,-0.5799,-0.5797,0,0,0,0,0,-0.5689,-0.5689,-0.5695,-0.5698,-0.572,-0.5731,-0.5734,-0.5748,-0.5753,-0.5754,-0.5766,-0.5776,-0.5796,-0.5798,-0.5801,-0.58,-0.582,-0.5819,-0.5819,-0.5801,-0.5799,-0.5797,0,0,0,0,0,0,-0.567,-0.5692,-0.5699,-0.5705,-0.5716,-0.5734,-0.5736,-0.5745,-0.5755,-0.5756,-0.5774,-0.5778,-0.5783,-0.5792,-0.5794,-0.5801,-0.5809,-0.5809,-0.5795,-0.5793,-0.5791,-0.5789,-0.5809,0,0,0,0,0,-0.5667,-0.5674,-0.5692,-0.5696,-0.5701,-0.5717,-0.5723,-0.5732,-0.5745,-0.575,-0.5762,-0.5774,-0.5783,-0.5788,-0.5798,-0.5802,-0.5806,-0.5802,-0.58,-0.5799,-0.5798,-0.5801,-0.5799,-0.5817,-0.5817,-0.5817,0,0,-0.566,-0.5672,-0.5676,-0.5692,-0.5702,-0.5709,-0.5721,-0.5728,-0.5733,-0.5751,-0.5758,-0.5768,-0.5782,-0.5788,-0.5791,-0.5795,-0.5794,-0.5798,-0.5797,-0.5797,-0.58,-0.5798,-0.5797,-0.5816,-0.5816,-0.5816,0,0,-0.565,-0.566,-0.5664,-0.5673,-0.5688,-0.5698,-0.5699,-0.5716,-0.5723,-0.5731,-0.5744,-0.575,-0.5766,-0.5775,-0.5782,-0.5775,-0.5784,-0.5777,-0.5768,-0.5769,-0.5768,-0.5767,-0.5764,-0.5763,-0.5777,-0.5777,-0.5777,0,-0.5639,-0.565,-0.5665,-0.5671,-0.5677,-0.5693,-0.5696,-0.5705,-0.5721,-0.5726,-0.573,-0.5749,-0.576,-0.5767,-0.5766,-0.5771,-0.5772,-0.5775,-0.5767,-0.5766,-0.5765,-0.5762,-0.5761,-0.5776,-0.5776,-0.5776,-0.5776,0,-0.5636,-0.5643,-0.5645,-0.566,-0.5666,-0.5671,-0.5686,-0.5691,-0.57,-0.571,-0.5718,-0.5731,-0.5743,-0.5745,-0.5754,-0.5754,-0.5756,-0.5764,-0.5772,-0.5762,-0.576,-0.5759,-0.5774,-0.5775,-0.5775,-0.5775,0,0,-0.5616,-0.5639,-0.5639,-0.5645,-0.5662,-0.5668,-0.5673,-0.5684,-0.5688,-0.5699,-0.5703,-0.5715,-0.5722,-0.5729,-0.574,-0.5741,-0.5734,-0.5749,-0.5749,-0.5745,-0.5733,-0.5727,-0.5726,-0.574,-0.574,-0.574,-0.5732,0,-0.5609,-0.5619,-0.5632,-0.5637,-0.5644,-0.5658,-0.5662,-0.5673,-0.5682,-0.5689,-0.57,-0.5707,-0.5716,-0.5721,-0.5723,-0.5734,-0.5732,-0.5735,-0.5744,-0.5745,-0.574,-0.5725,-0.5719,-0.571,-0.5731,-0.5731,-0.5731,0,-0.5602,-0.5612,-0.5617,-0.5632,-0.5636,-0.5639,-0.565,-0.5656,-0.5668,-0.5675,-0.5683,-0.5693,-0.5699,-0.5707,-0.5715,-0.5717,-0.5721,-0.5728,-0.5728,-0.5729,-0.5737,-0.5725,-0.5708,-0.5707,-0.573,-0.573,-0.573,0,-0.5587,-0.5601,-0.5606,-0.5611,-0.5629,-0.5631,-0.5638,-0.565,-0.5656,-0.5665,-0.5669,-0.5679,-0.5685,-0.5692,-0.5705,-0.571,-0.5712,-0.5721,-0.5717,-0.5717,-0.5717,-0.5717,-0.57,-0.572,-0.572,-0.572,-0.572,0,-0.5577,-0.558,-0.5599,-0.5602,-0.5605,-0.562,-0.5623,-0.5632,-0.5642,-0.5647,-0.566,-0.5664,-0.5682,-0.5688,-0.5698,-0.5703,-0.5705,-0.5711,-0.5713,-0.5709,-0.5709,-0.5713,-0.5713,-0.572,-0.572,-0.572,-0.572,0,-0.556,-0.5573,-0.5579,-0.5595,-0.5599,-0.5601,-0.5615,-0.5618,-0.5628,-0.5634,-0.5636,-0.5651,-0.5659,-0.5673,-0.5685,-0.5692,-0.5695,-0.5699,-0.569,-0.5692,-0.5688,-0.5688,-0.5673,-0.5671,-0.5692,-0.5692,-0.5692,0,-0.5554,-0.5556,-0.5572,-0.5576,-0.5582,-0.5589,-0.5594,-0.5608,-0.5614,-0.5627,-0.5628,-0.5637,-0.5645,-0.5657,-0.5669,-0.5678,-0.5683,-0.5677,-0.5685,-0.568,-0.5683,-0.5682,-0.5682,-0.5676,-0.5675,-0.5675,-0.5675,0,-0.554,-0.5546,-0.5553,-0.5562,-0.5568,-0.5576,-0.5584,-0.5587,-0.5603,-0.5608,-0.5616,-0.5622,-0.5633,-0.5642,-0.5653,-0.566,-0.567,-0.5672,-0.5672,-0.5668,-0.5662,-0.5665,-0.5685,-0.5673,-0.5673,-0.5673,-0.5673,-0.5673,-0.5528,-0.553,-0.5541,-0.5548,-0.5556,-0.5564,-0.5567,-0.5577,-0.5584,-0.5594,-0.5602,-0.5609,-0.562,-0.5635,-0.5642,-0.5648,-0.5653,-0.5652,-0.5652,-0.5652,-0.565,-0.5661,-0.565,-0.565,-0.565,-0.565,-0.5651,0,-0.5514,-0.5522,-0.5528,-0.5539,-0.5545,-0.5553,-0.5563,-0.5567,-0.5573,-0.5582,-0.5589,-0.5598,-0.5606,-0.5618,-0.5627,-0.5629,-0.5634,-0.5631,-0.5631,-0.5632,-0.5646,-0.5645,-0.5627,-0.5627,-0.5627,-0.5627,-0.5627,-0.5627,-0.5508,-0.5512,-0.5519,-0.5527,-0.5535,-0.5541,-0.5546,-0.5553,-0.556,-0.5569,-0.5575,-0.5583,-0.5594,-0.5603,-0.5611,-0.5614,-0.5617,-0.5612,-0.5617,-0.5629,-0.5632,-0.5634,-0.5633,-0.5613,-0.5613,-0.5603,-0.5603,-0.5603]}]]